When you browse on this site, cookies collect data to enhance your experience and personalize the content and advertising you see.
Visit our Privacy Policy to learn more. By continuing to use the site, you agree to this use of cookies and data.
  • In Lithuania
  • List of Countries
  • For 7 days
  • Water Temperature
  • Satellite Maps
  • Weather Map
  • Weather Widgets
  • user-avatar
    Login

    Hourly Weather Krolewiec

    Today, 15 February, Friday

    Time Temperature Precipitation Wind Pressure Humidity
    00:00 +5°C° 0 mm 1 mps 759 mmHg 91%
    01:00 +5°C° 0 mm 1 mps 759 mmHg 91%
    02:00 +4°C° 0 mm 1 mps 759 mmHg 91%
    03:00 +4°C° 0 mm 1 mps 758 mmHg 90%
    04:00 +2°C° 0 mm 2 mps 758 mmHg 90%
    05:00 +2°C° 0 mm 2 mps 758 mmHg 89%
    06:00 +3°C° 0 mm 1 mps 758 mmHg 88%
    07:00 +2°C° 0 mm 2 mps 758 mmHg 86%
    08:00 +3°C° 0 mm 2 mps 758 mmHg 79%
    09:00 +4°C° 0 mm 2 mps 758 mmHg 73%
    10:00 +6°C° 0 mm 2 mps 758 mmHg 66%
    11:00 +7°C° 0 mm 2 mps 758 mmHg 62%
    12:00 +8°C° 0 mm 2 mps 758 mmHg 59%
    13:00 +9°C° 0 mm 3 mps 758 mmHg 55%
    14:00 +9°C° 0 mm 3 mps 758 mmHg 58%
    15:00 +8°C° 0 mm 2 mps 758 mmHg 61%
    16:00 +8°C° 0 mm 2 mps 758 mmHg 64%
    17:00 +7°C° 0 mm 2 mps 757 mmHg 68%
    18:00 +6°C° 0 mm 2 mps 757 mmHg 72%
    19:00 +4°C° 0 mm 2 mps 757 mmHg 76%
    20:00 +4°C° 0 mm 2 mps 757 mmHg 75%
    21:00 +5°C° 0 mm 1 mps 757 mmHg 75%
    22:00 +4°C° 0 mm 1 mps 757 mmHg 74%
    23:00 +4°C° 0 mm 1 mps 757 mmHg 72%

    Tomorrow, 16 February, Saturday

    Time Temperature Precipitation Wind Pressure Humidity
    00:00 +4°C° 0 mm 1 mps 757 mmHg 70%
    01:00 +4°C° 0 mm 1 mps 757 mmHg 69%
    02:00 +4°C° 0 mm 1 mps 757 mmHg 66%
    03:00 +4°C° 0 mm 1 mps 756 mmHg 64%
    04:00 +3°C° 0 mm 1 mps 756 mmHg 62%
    05:00 +3°C° 0 mm 1 mps 756 mmHg 60%
    06:00 +3°C° 0 mm 1 mps 756 mmHg 59%
    07:00 +3°C° 0 mm 1 mps 756 mmHg 57%
    08:00 +5°C° 0 mm 1 mps 756 mmHg 53%
    09:00 +7°C° 0 mm 1 mps 756 mmHg 50%
    10:00 +9°C° 0 mm 1 mps 756 mmHg 46%
    11:00 +9°C° 0 mm 2 mps 755 mmHg 44%
    12:00 +12°C° 0 mm 2 mps 755 mmHg 42%
    13:00 +14°C° 0 mm 2 mps 755 mmHg 40%
    14:00 +13°C° 0 mm 2 mps 755 mmHg 44%
    15:00 +12°C° 0 mm 2 mps 754 mmHg 49%
    16:00 +12°C° 0 mm 2 mps 754 mmHg 53%
    17:00 +9°C° 0 mm 2 mps 754 mmHg 55%
    18:00 +7°C° 0 mm 2 mps 754 mmHg 57%
    19:00 +5°C° 0 mm 3 mps 754 mmHg 59%
    20:00 +5°C° 0 mm 3 mps 754 mmHg 57%
    21:00 +4°C° 0 mm 3 mps 754 mmHg 55%
    22:00 +4°C° 0 mm 3 mps 754 mmHg 54%
    23:00 +4°C° 0 mm 3 mps 754 mmHg 56%

    Day after tomorrow, 17 February, Sunday

    Time Temperature Precipitation Wind Pressure Humidity
    00:00 +3°C° 0 mm 3 mps 754 mmHg 57%
    01:00 +4°C° 0 mm 2 mps 754 mmHg 59%
    02:00 +4°C° 0 mm 2 mps 753 mmHg 60%
    03:00 +3°C° 0 mm 2 mps 753 mmHg 60%
    04:00 +3°C° 0 mm 2 mps 753 mmHg 61%
    05:00 +3°C° 0 mm 2 mps 753 mmHg 62%
    06:00 +3°C° 0 mm 2 mps 753 mmHg 62%
    07:00 +4°C° 0 mm 1 mps 753 mmHg 62%
    08:00 +5°C° 0 mm 1 mps 753 mmHg 59%
    09:00 +7°C° 0 mm 1 mps 753 mmHg 55%
    10:00 +9°C° 0 mm 1 mps 753 mmHg 52%
    11:00 +10°C° 0 mm 1 mps 753 mmHg 49%
    12:00 +11°C° 0 mm 1 mps 753 mmHg 46%
    13:00 +13°C° 0 mm 1 mps 753 mmHg 43%
    14:00 +12°C° 0 mm 1 mps 752 mmHg 47%
    15:00 +12°C° 0 mm 1 mps 752 mmHg 51%
    16:00 +11°C° 0 mm 1 mps 752 mmHg 55%
    17:00 +10°C° 0 mm 1 mps 752 mmHg 59%
    18:00 +8°C° 0 mm 1 mps 752 mmHg 63%
    19:00 +7°C° 0 mm 1 mps 752 mmHg 67%
    20:00 +6°C° 0 mm 1 mps 752 mmHg 67%
    21:00 +6°C° 0 mm 1 mps 752 mmHg 66%
    22:00 +6°C° 0 mm 1 mps 752 mmHg 66%
    23:00 +5°C° 0 mm 1 mps 752 mmHg 66%

    18 February, Monday

    Time Temperature Precipitation Wind Pressure Humidity
    00:00 +5°C° 0 mm 1 mps 752 mmHg 65%
    01:00 +5°C° 0 mm 1 mps 752 mmHg 64%
    02:00 +4°C° 0 mm 1 mps 752 mmHg 64%
    03:00 +4°C° 0 mm 1 mps 751 mmHg 64%
    04:00 +4°C° 0 mm 1 mps 751 mmHg 64%
    05:00 +4°C° 0 mm 1 mps 751 mmHg 65%
    06:00 +4°C° 0 mm 1 mps 751 mmHg 65%
    07:00 +3°C° 0 mm 1 mps 751 mmHg 65%
    08:00 +5°C° 0 mm 1 mps 751 mmHg 61%
    09:00 +7°C° 0 mm 1 mps 751 mmHg 57%
    10:00 +9°C° 0 mm 1 mps 751 mmHg 53%
    11:00 +10°C° 0 mm 1 mps 751 mmHg 49%
    12:00 +11°C° 0 mm 1 mps 751 mmHg 45%
    13:00 +13°C° 0 mm 1 mps 751 mmHg 41%
    14:00 +13°C° 0 mm 1 mps 750 mmHg 45%
    15:00 +12°C° 0 mm 1 mps 750 mmHg 49%
    16:00 +12°C° 0 mm 1 mps 750 mmHg 53%
    17:00 +10°C° 0 mm 1 mps 750 mmHg 57%
    18:00 +8°C° 0 mm 2 mps 750 mmHg 62%
    19:00 +6°C° 0 mm 2 mps 750 mmHg 67%
    20:00 +6°C° 0 mm 2 mps 750 mmHg 68%
    21:00 +5°C° 0 mm 2 mps 750 mmHg 70%
    22:00 +5°C° 0 mm 2 mps 750 mmHg 71%
    23:00 +4°C° 0 mm 2 mps 749 mmHg 72%

    19 February, Tuesday

    Time Temperature Precipitation Wind Pressure Humidity
    00:00 +4°C° 0 mm 2 mps 749 mmHg 73%
    01:00 +4°C° 0 mm 2 mps 749 mmHg 75%
    02:00 +3°C° 0 mm 2 mps 749 mmHg 76%
    03:00 +3°C° 0 mm 2 mps 749 mmHg 77%
    04:00 +3°C° 0 mm 2 mps 748 mmHg 78%
    05:00 +3°C° 0 mm 2 mps 748 mmHg 79%
    06:00 +2°C° 0 mm 2 mps 748 mmHg 80%
    07:00 +2°C° 0 mm 2 mps 748 mmHg 81%
    08:00 +4°C° 0 mm 2 mps 748 mmHg 75%
    09:00 +5°C° 0 mm 3 mps 748 mmHg 70%
    10:00 +7°C° 0 mm 3 mps 748 mmHg 64%
    11:00 +9°C° 0 mm 3 mps 748 mmHg 60%
    12:00 +10°C° 0 mm 3 mps 748 mmHg 57%
    13:00 +11°C° 0 mm 3 mps 747 mmHg 53%
    14:00 +11°C° 0 mm 4 mps 747 mmHg 54%
    15:00 +10°C° 0 mm 4 mps 747 mmHg 56%
    16:00 +10°C° 0 mm 4 mps 747 mmHg 57%
    17:00 +7°C° 0 mm 4 mps 747 mmHg 61%
    18:00 +6°C° 0 mm 4 mps 747 mmHg 65%
    19:00 +5°C° 0 mm 4 mps 747 mmHg 69%
    20:00 +5°C° 0.1 mm 4 mps 748 mmHg 71%
    21:00 +6°C° 0.1 mm 4 mps 748 mmHg 74%
    22:00 +6°C° 0.1 mm 4 mps 749 mmHg 76%
    23:00 +5°C° 0 mm 4 mps 749 mmHg 81%

    20 February, Wednesday

    Time Temperature Precipitation Wind Pressure Humidity
    00:00 +4°C° 0 mm 4 mps 749 mmHg 86%
    01:00 +3°C° 0 mm 3 mps 749 mmHg 91%
    02:00 +3°C° 0 mm 3 mps 749 mmHg 90%
    03:00 +3°C° 0 mm 3 mps 749 mmHg 90%
    04:00 +2°C° 0 mm 3 mps 750 mmHg 90%
    05:00 +2°C° 0 mm 3 mps 750 mmHg 89%
    06:00 +2°C° 0 mm 3 mps 750 mmHg 89%
    07:00 +1°C° 0 mm 3 mps 750 mmHg 89%
    08:00 +3°C° 0 mm 4 mps 750 mmHg 83%
    09:00 +4°C° 0 mm 4 mps 751 mmHg 76%
    10:00 +6°C° 0 mm 5 mps 751 mmHg 69%
    11:00 +6°C° 0 mm 5 mps 751 mmHg 64%
    12:00 +7°C° 0 mm 5 mps 751 mmHg 59%
    13:00 +8°C° 0 mm 5 mps 751 mmHg 55%
    14:00 +8°C° 0 mm 5 mps 751 mmHg 56%
    15:00 +8°C° 0 mm 4 mps 751 mmHg 58%
    16:00 +8°C° 0 mm 4 mps 751 mmHg 60%
    17:00 +7°C° 0 mm 3 mps 751 mmHg 65%
    18:00 +5°C° 0 mm 3 mps 751 mmHg 71%
    19:00 +4°C° 0 mm 3 mps 751 mmHg 77%
    20:00 +4°C° 0 mm 3 mps 751 mmHg 78%
    21:00 +4°C° 0 mm 3 mps 752 mmHg 78%
    22:00 +3°C° 0 mm 3 mps 752 mmHg 79%
    23:00 +3°C° 0 mm 3 mps 752 mmHg 80%
    Show more